User: anonymous   Login
Location: Narrabri
(30.3170°S, 149.7830°E)
Time: 16:01:51
(UTC+11:00)
Language:

XW-2D - Orbit

View from above orbital plane
View from above orbital plane
View from above satellite
View from above satellite

Ground track
Ground track

The orbit data is extracted from the following two-line orbital elements,

1 40907U 15049J   17322.73316601  .00001331  00000-0  74622-4 0  9994
2 40907  97.4543 324.9145 0015644  42.2651 317.9783 15.14994801119632
Epoch (UTC): 18 November 2017 17:35:45
Eccentricity: 0.0015644
inclination: 97.4543°
perigee height: 510 km
apogee height: 532 km
right ascension of ascending node: 324.9145°
argument of perigee: 42.2651°
revolutions per day: 15.14994801
mean anomaly at epoch: 317.9783°
orbit number at epoch: 11963

The dashed part of the orbit path shows where the satellite is in the earth's shadow,  

DLR